EWG2775 EIDW-EDDS

Flight info

Callsign EWG2775
Flight time 1h 42m
Altitude 39000
Route DEXEN2J DEXEN Y124 LUTIP UY124 DOLOP DCT KEPAD L15 HON L10 ITVIP DCT KONAN UL607 KOK M150 KRH KRH1E
Aircraft A319/M-SDE3FGHIRWY/LB1

Departure

Time 2026-05-05 12:12
Airport Dublin Airport (EIDW)

Arrival

Time 2026-05-05 13:55
Airport Stuttgart Airport (EDDS)
Time Latitude Longitude Altitude Speed Heading
2026-05-05 11:16 53.42798 -6.24880 211 ft 0 kts 86°
2026-05-05 12:02 53.42797 -6.24907 213 ft 4 kts 86°
2026-05-05 12:02 53.42796 -6.24952 214 ft 4 kts 86°
2026-05-05 12:03 53.42794 -6.24992 211 ft 4 kts 96°
2026-05-05 12:03 53.42803 -6.25024 213 ft 4 kts 163°
2026-05-05 12:03 53.42827 -6.25022 211 ft 4 kts 206°
2026-05-05 12:03 53.42848 -6.24996 213 ft 4 kts 227°
2026-05-05 12:04 53.42866 -6.24963 211 ft 4 kts 227°
2026-05-05 12:04 53.42873 -6.24951 211 ft 0 kts 227°
2026-05-05 12:06 53.42867 -6.24962 211 ft 1 kts 227°
2026-05-05 12:06 53.42846 -6.25001 214 ft 7 kts 228°
2026-05-05 12:07 53.42800 -6.25063 211 ft 10 kts 223°
2026-05-05 12:07 53.42795 -6.25183 211 ft 12 kts 274°
2026-05-05 12:07 53.42850 -6.25283 219 ft 14 kts 336°
2026-05-05 12:07 53.42946 -6.25353 214 ft 16 kts 336°
2026-05-05 12:08 53.43059 -6.25436 217 ft 19 kts 336°
2026-05-05 12:08 53.43191 -6.25532 215 ft 22 kts 337°
2026-05-05 12:08 53.43335 -6.25636 211 ft 19 kts 336°
2026-05-05 12:08 53.43408 -6.25566 211 ft 16 kts 86°
2026-05-05 12:09 53.43396 -6.25368 211 ft 18 kts 94°
2026-05-05 12:09 53.43385 -6.25136 216 ft 21 kts 95°
2026-05-05 12:09 53.43370 -6.24869 211 ft 24 kts 95°
2026-05-05 12:09 53.43353 -6.24566 211 ft 28 kts 95°
2026-05-05 12:10 53.43333 -6.24220 211 ft 30 kts 95°
2026-05-05 12:10 53.43320 -6.23974 211 ft 17 kts 95°
2026-05-05 12:10 53.43400 -6.23850 210 ft 20 kts
2026-05-05 12:10 53.43476 -6.23851 208 ft 7 kts 339°
2026-05-05 12:11 53.43488 -6.23922 208 ft 0 kts 276°
2026-05-05 12:11 53.43491 -6.23987 212 ft 21 kts 275°
2026-05-05 12:11 53.43528 -6.24648 214 ft 90 kts 275°
2026-05-05 12:11 53.43605 -6.26035 214 ft 147 kts 275°
2026-05-05 12:12 53.43712 -6.27828 649 ft 155 kts 278°
2026-05-05 12:12 53.43865 -6.29610 1218 ft 156 kts 292°
2026-05-05 12:12 53.44578 -6.30992 1578 ft 166 kts 326°
2026-05-05 12:12 53.45464 -6.32404 1943 ft 187 kts 314°
2026-05-05 12:13 53.46290 -6.34218 2388 ft 204 kts 308°
2026-05-05 12:13 53.47139 -6.36209 3142 ft 212 kts 308°
2026-05-05 12:13 53.47999 -6.38276 3898 ft 224 kts 307°
2026-05-05 12:13 53.48898 -6.40449 4833 ft 227 kts 307°
2026-05-05 12:14 53.49836 -6.42695 5576 ft 242 kts 307°
2026-05-05 12:14 53.50804 -6.45121 6313 ft 258 kts 299°
2026-05-05 12:14 53.51144 -6.48092 7178 ft 268 kts 266°
2026-05-05 12:14 53.50428 -6.51022 7997 ft 282 kts 234°
2026-05-05 12:15 53.48842 -6.52988 8644 ft 291 kts 201°
2026-05-05 12:15 53.46838 -6.53289 9368 ft 295 kts 169°
2026-05-05 12:15 53.45040 -6.51674 10160 ft 300 kts 137°
2026-05-05 12:15 53.43688 -6.48983 10882 ft 306 kts 126°
2026-05-05 12:16 53.42442 -6.46026 11573 ft 313 kts 124°
2026-05-05 12:16 53.41187 -6.42986 12249 ft 323 kts 124°
2026-05-05 12:16 53.39905 -6.39881 12818 ft 334 kts 124°
2026-05-05 12:16 53.38647 -6.36535 13370 ft 345 kts 120°
2026-05-05 12:17 53.37527 -6.32912 13916 ft 356 kts 113°
2026-05-05 12:17 53.36715 -6.28953 14396 ft 363 kts 102°
2026-05-05 12:17 53.36198 -6.24776 14960 ft 369 kts 100°
2026-05-05 12:17 53.35724 -6.20543 15478 ft 372 kts 99°
2026-05-05 12:18 53.35275 -6.16265 16006 ft 374 kts 99°
2026-05-05 12:18 53.34834 -6.11958 16523 ft 377 kts 99°
2026-05-05 12:18 53.34387 -6.07619 17047 ft 380 kts 100°
2026-05-05 12:18 53.33928 -6.03258 17587 ft 383 kts 100°
2026-05-05 12:19 53.33456 -5.98854 18121 ft 386 kts 100°
2026-05-05 12:19 53.32971 -5.94402 18633 ft 390 kts 101°
2026-05-05 12:19 53.32479 -5.89926 19113 ft 393 kts 101°
2026-05-05 12:19 53.31983 -5.85416 19602 ft 396 kts 101°
2026-05-05 12:20 53.31484 -5.80884 20097 ft 399 kts 101°
2026-05-05 12:20 53.30976 -5.76298 20601 ft 402 kts 101°
2026-05-05 12:20 53.30467 -5.71687 21120 ft 405 kts 101°
2026-05-05 12:20 53.29954 -5.67040 21643 ft 408 kts 101°
2026-05-05 12:21 53.29432 -5.62359 22175 ft 411 kts 101°
2026-05-05 12:21 53.28900 -5.57644 22716 ft 414 kts 101°
2026-05-05 12:21 53.28362 -5.52886 23033 ft 418 kts 101°
2026-05-05 12:21 53.27977 -5.48071 23094 ft 423 kts 94°
2026-05-05 12:22 53.27834 -5.43089 23092 ft 434 kts 93°
2026-05-05 12:22 53.27694 -5.38035 23092 ft 437 kts 93°
2026-05-05 12:22 53.27554 -5.32963 23092 ft 437 kts 93°
2026-05-05 12:22 53.27409 -5.27935 23205 ft 440 kts 93°
2026-05-05 12:23 53.27252 -5.22819 23630 ft 442 kts 94°
2026-05-05 12:23 53.27088 -5.17666 24008 ft 445 kts 94°
2026-05-05 12:23 53.26924 -5.12495 24380 ft 447 kts 94°
2026-05-05 12:23 53.26757 -5.07296 24760 ft 449 kts 94°
2026-05-05 12:24 53.26584 -5.02069 25144 ft 452 kts 94°
2026-05-05 12:24 53.26243 -4.96851 25517 ft 453 kts 104°
2026-05-05 12:24 53.25363 -4.91800 25897 ft 454 kts 109°
2026-05-05 12:24 53.24425 -4.86740 26281 ft 456 kts 109°
2026-05-05 12:25 53.23475 -4.81674 26650 ft 458 kts 109°
2026-05-05 12:25 53.22512 -4.76589 27012 ft 461 kts 109°
2026-05-05 12:25 53.21557 -4.71478 27302 ft 462 kts 108°
2026-05-05 12:25 53.20658 -4.66387 27568 ft 464 kts 108°
2026-05-05 12:26 53.19781 -4.61191 27887 ft 467 kts 107°
2026-05-05 12:26 53.18917 -4.55964 28243 ft 468 kts 107°
2026-05-05 12:26 53.18050 -4.50728 28603 ft 469 kts 107°
2026-05-05 12:26 53.17166 -4.45478 28935 ft 471 kts 107°
2026-05-05 12:27 53.16266 -4.40217 29277 ft 472 kts 107°
2026-05-05 12:27 53.15351 -4.34949 29647 ft 473 kts 107°
2026-05-05 12:27 53.14435 -4.29711 30174 ft 471 kts 107°
2026-05-05 12:27 53.13519 -4.24488 30578 ft 469 kts 107°
2026-05-05 12:28 53.12601 -4.19260 30948 ft 469 kts 107°
2026-05-05 12:28 53.11683 -4.14055 31346 ft 468 kts 107°
2026-05-05 12:28 53.10767 -4.08871 31779 ft 466 kts 107°
2026-05-05 12:28 53.09854 -4.03701 32191 ft 465 kts 107°
2026-05-05 12:29 53.08943 -3.98550 32647 ft 463 kts 107°
2026-05-05 12:29 53.08036 -3.93436 33104 ft 461 kts 108°
2026-05-05 12:29 53.07126 -3.88332 33527 ft 460 kts 107°
2026-05-05 12:29 53.06215 -3.83236 33915 ft 459 kts 107°
2026-05-05 12:30 53.05301 -3.78144 34311 ft 458 kts 108°
2026-05-05 12:30 53.04389 -3.73085 34628 ft 458 kts 107°
2026-05-05 12:30 53.03474 -3.68010 34919 ft 459 kts 107°
2026-05-05 12:30 53.02556 -3.62924 35223 ft 460 kts 107°
2026-05-05 12:31 53.01635 -3.57846 35557 ft 459 kts 107°
2026-05-05 12:31 53.00707 -3.52763 35836 ft 460 kts 108°
2026-05-05 12:31 52.99778 -3.47681 36155 ft 460 kts 108°
2026-05-05 12:31 52.98846 -3.42604 36471 ft 459 kts 107°
2026-05-05 12:32 52.97910 -3.37520 36734 ft 460 kts 108°
2026-05-05 12:32 52.96969 -3.32431 36928 ft 462 kts 107°
2026-05-05 12:32 52.96022 -3.27323 37218 ft 462 kts 107°
2026-05-05 12:32 52.95081 -3.22246 37547 ft 460 kts 107°
2026-05-05 12:33 52.94138 -3.17169 37793 ft 461 kts 108°
2026-05-05 12:33 52.93192 -3.12092 38031 ft 462 kts 108°
2026-05-05 12:33 52.92241 -3.07012 38323 ft 461 kts 108°
2026-05-05 12:33 52.91297 -3.01993 38525 ft 462 kts 108°
2026-05-05 12:34 52.90336 -2.96903 38703 ft 463 kts 108°
2026-05-05 12:34 52.89374 -2.91809 38890 ft 463 kts 108°
2026-05-05 12:34 52.88400 -2.86658 39018 ft 464 kts 108°
2026-05-05 12:34 52.87434 -2.81559 39044 ft 463 kts 108°
2026-05-05 12:35 52.85513 -2.71429 39033 ft 461 kts 108°
2026-05-05 12:35 52.83585 -2.61367 39030 ft 461 kts 108°
2026-05-05 12:36 52.81518 -2.51347 39030 ft 460 kts 116°
2026-05-05 12:36 52.78057 -2.42543 39028 ft 457 kts 133°
2026-05-05 12:37 52.73773 -2.34782 39042 ft 457 kts 133°
2026-05-05 12:37 52.69499 -2.27006 39027 ft 457 kts 133°
2026-05-05 12:38 52.65221 -2.19235 39034 ft 458 kts 133°
2026-05-05 12:38 52.60928 -2.11485 39033 ft 458 kts 134°
2026-05-05 12:39 52.56622 -2.03744 39036 ft 459 kts 133°
2026-05-05 12:39 52.52318 -1.96023 39039 ft 458 kts 134°
2026-05-05 12:40 52.48010 -1.88309 39044 ft 458 kts 134°
2026-05-05 12:40 52.43729 -1.80681 39050 ft 457 kts 134°
2026-05-05 12:41 52.39421 -1.73035 39049 ft 456 kts 134°
2026-05-05 12:41 52.35344 -1.65068 39046 ft 458 kts 123°
2026-05-05 12:42 52.32336 -1.55899 39020 ft 458 kts 118°
2026-05-05 12:42 52.29892 -1.48218 39014 ft 458 kts 118°
2026-05-05 12:43 52.26936 -1.38989 39012 ft 458 kts 118°
2026-05-05 12:43 52.23979 -1.29814 39019 ft 457 kts 118°
2026-05-05 12:44 52.21017 -1.20649 39020 ft 456 kts 119°
2026-05-05 12:44 52.18027 -1.11531 39016 ft 455 kts 123°
2026-05-05 12:45 52.14480 -1.03004 39014 ft 455 kts 126°
2026-05-05 12:45 52.10907 -0.94510 39006 ft 455 kts 126°
2026-05-05 12:46 52.07859 -0.85492 38989 ft 456 kts 117°
2026-05-05 12:46 52.05035 -0.76258 38984 ft 456 kts 117°
2026-05-05 12:47 52.02191 -0.67030 38993 ft 456 kts 118°
2026-05-05 12:47 51.99286 -0.57892 38990 ft 456 kts 119°
2026-05-05 12:48 51.96355 -0.48776 38990 ft 456 kts 118°
2026-05-05 12:48 51.93439 -0.39656 38990 ft 456 kts 119°
2026-05-05 12:49 51.90528 -0.30551 38990 ft 455 kts 118°
2026-05-05 12:49 51.87596 -0.21447 38989 ft 455 kts 119°
2026-05-05 12:50 51.84662 -0.12378 38989 ft 455 kts 119°
2026-05-05 12:50 51.81715 -0.03312 39006 ft 455 kts 119°
2026-05-05 12:51 51.78765 0.05732 38994 ft 454 kts 119°
2026-05-05 12:51 51.75820 0.14735 38999 ft 452 kts 120°
2026-05-05 12:52 51.72879 0.23701 38998 ft 451 kts 120°
2026-05-05 12:52 51.69937 0.32636 38993 ft 451 kts 119°
2026-05-05 12:53 51.66991 0.41551 38992 ft 450 kts 120°
2026-05-05 12:53 51.64059 0.50384 38990 ft 450 kts 120°
2026-05-05 12:54 51.59621 0.63701 38992 ft 450 kts 120°
2026-05-05 12:55 51.56637 0.72607 38985 ft 450 kts 120°
2026-05-05 12:55 51.53678 0.81392 38990 ft 449 kts 120°
2026-05-05 12:56 51.50704 0.90216 38989 ft 449 kts 121°
2026-05-05 12:56 51.47725 0.99031 38982 ft 449 kts 120°
2026-05-05 12:57 51.44732 1.07849 38974 ft 450 kts 120°
2026-05-05 12:57 51.41725 1.16652 38972 ft 451 kts 120°
2026-05-05 12:58 51.38720 1.25483 38974 ft 452 kts 120°
2026-05-05 12:58 51.35724 1.34338 38975 ft 452 kts 120°
2026-05-05 12:59 51.32723 1.43176 38973 ft 452 kts 120°
2026-05-05 12:59 51.29694 1.52008 38959 ft 453 kts 122°
2026-05-05 13:00 51.25141 1.65255 38957 ft 454 kts 121°
2026-05-05 13:01 51.19052 1.82832 38963 ft 455 kts 120°
2026-05-05 13:01 51.15984 1.91661 38950 ft 455 kts 121°
2026-05-05 13:02 51.13387 2.00831 38959 ft 457 kts 107°
2026-05-05 13:02 51.12505 2.10869 38959 ft 459 kts 96°
2026-05-05 13:03 51.11976 2.20994 38960 ft 459 kts 96°
2026-05-05 13:03 51.11417 2.31121 38957 ft 459 kts 97°
2026-05-05 13:04 51.10844 2.41246 38951 ft 459 kts 97°
2026-05-05 13:04 51.10270 2.51383 38943 ft 460 kts 97°
2026-05-05 13:05 51.09612 2.61521 38941 ft 459 kts 103°
2026-05-05 13:05 51.07538 2.71016 38934 ft 453 kts 121°
2026-05-05 13:06 51.04585 2.79876 38936 ft 454 kts 120°
2026-05-05 13:06 51.01635 2.88730 38935 ft 454 kts 120°
2026-05-05 13:07 50.98667 2.97601 38938 ft 454 kts 120°
2026-05-05 13:07 50.95695 3.06447 38934 ft 455 kts 120°
2026-05-05 13:08 50.92716 3.15307 38934 ft 455 kts 120°
2026-05-05 13:08 50.89739 3.24153 38922 ft 455 kts 120°
2026-05-05 13:09 50.86739 3.32973 38919 ft 455 kts 121°
2026-05-05 13:09 50.83755 3.41722 38927 ft 454 kts 121°
2026-05-05 13:10 50.80735 3.50565 38928 ft 453 kts 121°
2026-05-05 13:10 50.77750 3.59252 38929 ft 452 kts 121°
2026-05-05 13:11 50.74747 3.67968 38924 ft 452 kts 121°
2026-05-05 13:11 50.71746 3.76685 38908 ft 451 kts 121°
2026-05-05 13:12 50.68736 3.85373 38917 ft 451 kts 121°
2026-05-05 13:12 50.65723 3.94055 38923 ft 451 kts 121°
2026-05-05 13:13 50.62706 4.02710 38919 ft 450 kts 122°
2026-05-05 13:13 50.59677 4.11345 38919 ft 450 kts 122°
2026-05-05 13:14 50.56650 4.19958 38913 ft 450 kts 122°
2026-05-05 13:14 50.53613 4.28565 38913 ft 449 kts 122°
2026-05-05 13:15 50.50576 4.37150 38915 ft 448 kts 122°
2026-05-05 13:15 50.47549 4.45696 38912 ft 448 kts 122°
2026-05-05 13:16 50.44524 4.54248 38913 ft 448 kts 122°
2026-05-05 13:16 50.41534 4.62818 38900 ft 448 kts 122°
2026-05-05 13:17 50.38550 4.71387 38903 ft 447 kts 122°
2026-05-05 13:17 50.35555 4.79928 38908 ft 447 kts 122°
2026-05-05 13:18 50.32558 4.88441 38907 ft 447 kts 122°
2026-05-05 13:18 50.29547 4.96944 38899 ft 446 kts 122°
2026-05-05 13:19 50.26545 5.05377 38903 ft 446 kts 122°
2026-05-05 13:19 50.23522 5.13840 38895 ft 446 kts 122°
2026-05-05 13:20 50.20479 5.22341 38887 ft 446 kts 122°
2026-05-05 13:20 50.17457 5.30717 38888 ft 445 kts 122°
2026-05-05 13:21 50.14401 5.39181 38876 ft 445 kts 122°
2026-05-05 13:21 50.11394 5.47539 38876 ft 445 kts 122°
2026-05-05 13:22 50.08354 5.55940 38868 ft 445 kts 122°
2026-05-05 13:22 50.05308 5.64320 38865 ft 445 kts 122°
2026-05-05 13:23 50.02258 5.72701 38876 ft 445 kts 122°
2026-05-05 13:23 49.99700 5.79722 38864 ft 444 kts 122°
2026-05-05 13:24 49.96667 5.87993 38851 ft 443 kts 122°
2026-05-05 13:24 49.93594 5.96307 38846 ft 444 kts 123°
2026-05-05 13:25 49.90521 6.04614 38858 ft 444 kts 122°
2026-05-05 13:25 49.87450 6.12911 38870 ft 443 kts 122°
2026-05-05 13:26 49.84369 6.21190 38871 ft 443 kts 123°
2026-05-05 13:26 49.81286 6.29455 38872 ft 443 kts 123°
2026-05-05 13:27 49.78205 6.37701 38862 ft 443 kts 123°
2026-05-05 13:27 49.75109 6.45954 38856 ft 443 kts 123°
2026-05-05 13:28 49.72017 6.54201 38859 ft 443 kts 122°
2026-05-05 13:28 49.69092 6.62600 38860 ft 444 kts 120°
2026-05-05 13:29 49.66258 6.71071 38859 ft 444 kts 120°
2026-05-05 13:29 49.63393 6.79511 38848 ft 444 kts 121°
2026-05-05 13:30 49.60499 6.87857 38855 ft 444 kts 121°
2026-05-05 13:30 49.57574 6.96232 38862 ft 444 kts 121°
2026-05-05 13:31 49.54657 7.04592 38860 ft 443 kts 121°
2026-05-05 13:31 49.51737 7.12957 38855 ft 444 kts 121°
2026-05-05 13:32 49.48803 7.21326 38843 ft 444 kts 122°
2026-05-05 13:32 49.45863 7.29688 38848 ft 445 kts 122°
2026-05-05 13:33 49.42907 7.38056 38854 ft 445 kts 122°
2026-05-05 13:33 49.41431 7.42229 38685 ft 444 kts 122°
2026-05-05 13:33 49.39957 7.46389 38207 ft 443 kts 122°
2026-05-05 13:34 49.38483 7.50539 37669 ft 442 kts 122°
2026-05-05 13:34 49.37013 7.54666 37156 ft 440 kts 122°
2026-05-05 13:34 49.35548 7.58769 36623 ft 437 kts 122°
2026-05-05 13:34 49.34091 7.62844 36050 ft 435 kts 123°
2026-05-05 13:35 49.32639 7.66911 35428 ft 433 kts 123°
2026-05-05 13:35 49.31217 7.70891 34822 ft 430 kts 123°
2026-05-05 13:35 49.29761 7.74955 34203 ft 428 kts 123°
2026-05-05 13:35 49.28335 7.78926 33550 ft 425 kts 123°
2026-05-05 13:36 49.26911 7.82882 32734 ft 424 kts 123°
2026-05-05 13:36 49.25483 7.86843 31832 ft 426 kts 122°
2026-05-05 13:36 49.24069 7.90769 30911 ft 428 kts 122°
2026-05-05 13:36 49.22625 7.94771 29917 ft 431 kts 122°
2026-05-05 13:37 49.21164 7.98809 28695 ft 435 kts 122°
2026-05-05 13:37 49.19688 8.02878 27448 ft 441 kts 122°
2026-05-05 13:37 49.18196 8.06983 26310 ft 445 kts 122°
2026-05-05 13:37 49.16687 8.11127 25300 ft 446 kts 122°
2026-05-05 13:38 49.15183 8.15250 24512 ft 442 kts 122°
2026-05-05 13:38 49.13691 8.19334 23725 ft 439 kts 122°
2026-05-05 13:38 49.12208 8.23385 22884 ft 435 kts 122°
2026-05-05 13:38 49.10738 8.27398 22059 ft 431 kts 122°
2026-05-05 13:39 49.09358 8.31434 21257 ft 429 kts 115°
2026-05-05 13:39 49.08416 8.35744 20482 ft 425 kts 110°
2026-05-05 13:39 49.07531 8.40018 19704 ft 421 kts 110°
2026-05-05 13:39 49.06653 8.44258 18955 ft 417 kts 110°
2026-05-05 13:40 49.05782 8.48462 18225 ft 413 kts 110°
2026-05-05 13:40 49.04919 8.52622 17435 ft 409 kts 110°
2026-05-05 13:40 49.04066 8.56735 16682 ft 405 kts 110°
2026-05-05 13:40 49.03219 8.60809 15983 ft 401 kts 110°
2026-05-05 13:41 49.02368 8.64836 15309 ft 397 kts 110°
2026-05-05 13:41 49.01511 8.68804 14631 ft 393 kts 110°
2026-05-05 13:41 49.00647 8.72741 13936 ft 390 kts 110°
2026-05-05 13:41 48.99789 8.76636 13207 ft 386 kts 110°
2026-05-05 13:42 48.98938 8.80495 12530 ft 383 kts 110°
2026-05-05 13:42 48.98096 8.84331 11998 ft 381 kts 110°
2026-05-05 13:42 48.97263 8.88131 11595 ft 373 kts 110°
2026-05-05 13:42 48.96463 8.91785 11344 ft 356 kts 110°
2026-05-05 13:43 48.95705 8.95232 11102 ft 341 kts 111°
2026-05-05 13:43 48.94962 8.98597 10854 ft 330 kts 111°
2026-05-05 13:43 48.94242 9.01856 10605 ft 320 kts 111°
2026-05-05 13:43 48.93541 9.05027 10366 ft 312 kts 111°
2026-05-05 13:44 48.92856 9.08118 10126 ft 304 kts 112°
2026-05-05 13:44 48.92186 9.11131 9888 ft 297 kts 112°
2026-05-05 13:44 48.91527 9.14094 9609 ft 293 kts 112°
2026-05-05 13:44 48.90879 9.17003 9292 ft 290 kts 112°
2026-05-05 13:45 48.90233 9.19900 8979 ft 288 kts 112°
2026-05-05 13:45 48.89598 9.22769 8655 ft 285 kts 112°
2026-05-05 13:45 48.88972 9.25605 8315 ft 282 kts 112°
2026-05-05 13:45 48.88344 9.28428 7943 ft 280 kts 112°
2026-05-05 13:46 48.87723 9.31219 7576 ft 279 kts 111°
2026-05-05 13:46 48.87102 9.34005 7219 ft 277 kts 111°
2026-05-05 13:46 48.86487 9.36768 6889 ft 275 kts 111°
2026-05-05 13:46 48.85874 9.39513 6515 ft 274 kts 111°
2026-05-05 13:47 48.85263 9.42243 6197 ft 272 kts 111°
2026-05-05 13:47 48.84662 9.44918 5961 ft 268 kts 111°
2026-05-05 13:47 48.84059 9.47548 5753 ft 261 kts 115°
2026-05-05 13:47 48.83156 9.49882 5556 ft 253 kts 131°
2026-05-05 13:48 48.81903 9.51684 5343 ft 245 kts 147°
2026-05-05 13:48 48.80427 9.52880 5148 ft 237 kts 162°
2026-05-05 13:48 48.78884 9.53549 4949 ft 225 kts 167°
2026-05-05 13:48 48.77408 9.54156 4758 ft 215 kts 167°
2026-05-05 13:49 48.75973 9.54334 4593 ft 204 kts 197°
2026-05-05 13:49 48.74863 9.53068 4438 ft 206 kts 240°
2026-05-05 13:49 48.74444 9.50978 4293 ft 207 kts 254°
2026-05-05 13:49 48.74039 9.48926 4149 ft 200 kts 251°
2026-05-05 13:50 48.73651 9.46961 4089 ft 189 kts 252°
2026-05-05 13:50 48.73291 9.45067 3922 ft 187 kts 252°
2026-05-05 13:50 48.72933 9.43164 3718 ft 187 kts 254°
2026-05-05 13:50 48.72582 9.41292 3479 ft 185 kts 253°
2026-05-05 13:51 48.72232 9.39427 3238 ft 184 kts 255°
2026-05-05 13:51 48.71885 9.37577 2998 ft 183 kts 255°
2026-05-05 13:51 48.71545 9.35766 2779 ft 172 kts 255°
2026-05-05 13:51 48.71232 9.34102 2559 ft 157 kts 255°
2026-05-05 13:52 48.70953 9.32623 2368 ft 140 kts 255°
2026-05-05 13:52 48.70698 9.31264 2176 ft 130 kts 256°
2026-05-05 13:52 48.70448 9.29938 1996 ft 131 kts 256°
2026-05-05 13:52 48.70204 9.28632 1812 ft 126 kts 257°
2026-05-05 13:53 48.69959 9.27365 1637 ft 126 kts 257°
2026-05-05 13:53 48.69715 9.26083 1458 ft 127 kts 258°
2026-05-05 13:53 48.69477 9.24802 1293 ft 127 kts 258°
2026-05-05 13:53 48.69248 9.23562 1207 ft 111 kts 255°
2026-05-05 13:54 48.69074 9.22639 1224 ft 73 kts 254°
2026-05-05 13:54 48.68954 9.22017 1245 ft 57 kts 253°
2026-05-05 13:54 48.68847 9.21454 1257 ft 54 kts 254°
2026-05-05 13:54 48.68746 9.20924 1265 ft 51 kts 253°
2026-05-05 13:55 48.68676 9.20484 1274 ft 31 kts 267°
2026-05-05 13:55 48.68684 9.20327 1277 ft 10 kts 278°
2026-05-05 13:55 48.68696 9.20237 1280 ft 8 kts 282°
2026-05-05 13:55 48.68704 9.20181 1285 ft 3 kts 283°
2026-05-05 13:56 48.68708 9.20156 1284 ft 3 kts 283°
2026-05-05 13:56 48.68716 9.20108 1287 ft 7 kts 286°
2026-05-05 13:56 48.68751 9.20017 1291 ft 10 kts 311°
2026-05-05 13:56 48.68795 9.19946 1295 ft 9 kts 314°
2026-05-05 13:57 48.68843 9.19895 1299 ft 8 kts 338°
2026-05-05 13:57 48.68902 9.19875 1303 ft 8 kts
2026-05-05 13:57 48.68937 9.19924 1303 ft 7 kts 56°
2026-05-05 13:57 48.68957 9.19974 1303 ft 5 kts 59°
2026-05-05 13:58 48.68976 9.20021 1303 ft 6 kts 60°
2026-05-05 13:58 48.68958 9.20071 1300 ft 7 kts 163°
2026-05-05 13:58 48.68919 9.20088 1297 ft 0 kts 164°